CFG5KL EDDH-EDDF

Flight info

Callsign CFG5KL
Flight time N/A
Altitude 30000
Route AMLUH2G/33 AMLUH M852 DENIX DCT RIMET/N0439F310 T157 KOKEB/N0392F230 T157 KERAX KERAX5D
Aircraft A321/M-SDE3FGHIRWY/LB1

Departure

Time 2026-04-22 16:18
Airport Hamburg Helmut Schmidt Airport (EDDH)

Arrival

Time N/A
Airport Frankfurt Main Airport (EDDF)
Time Latitude Longitude Altitude Speed Heading
2026-04-22 16:01 53.62807 10.00239 45 ft 0 kts 62°
2026-04-22 16:11 53.62801 10.00222 44 ft 3 kts 59°
2026-04-22 16:11 53.62790 10.00194 41 ft 3 kts 50°
2026-04-22 16:11 53.62777 10.00170 42 ft 3 kts 35°
2026-04-22 16:11 53.62760 10.00155 40 ft 3 kts
2026-04-22 16:12 53.62748 10.00156 42 ft 1 kts 333°
2026-04-22 16:12 53.62747 10.00156 42 ft 0 kts 333°
2026-04-22 16:15 53.62766 10.00140 42 ft 8 kts 332°
2026-04-22 16:15 53.62810 10.00101 45 ft 5 kts 333°
2026-04-22 16:16 53.62836 10.00075 45 ft 4 kts 320°
2026-04-22 16:16 53.62850 10.00040 45 ft 3 kts 297°
2026-04-22 16:16 53.62855 10.00007 42 ft 3 kts 275°
2026-04-22 16:16 53.62848 9.99972 45 ft 7 kts 246°
2026-04-22 16:17 53.62816 9.99827 46 ft 15 kts 277°
2026-04-22 16:17 53.62969 9.99658 45 ft 55 kts 333°
2026-04-22 16:17 53.63510 9.99187 51 ft 117 kts 333°
2026-04-22 16:17 53.64384 9.98429 54 ft 163 kts 333°
2026-04-22 16:18 53.65404 9.97565 671 ft 162 kts 335°
2026-04-22 16:18 53.66409 9.96717 1365 ft 165 kts 332°
2026-04-22 16:18 53.67493 9.95778 1733 ft 186 kts 332°
2026-04-22 16:18 53.68726 9.94811 2158 ft 204 kts 346°
2026-04-22 16:19 53.70146 9.94672 2948 ft 205 kts
2026-04-22 16:19 53.71585 9.94721 3750 ft 208 kts
2026-04-22 16:19 53.72888 9.95711 4467 ft 212 kts 46°
2026-04-22 16:19 53.73550 9.97944 5255 ft 218 kts 73°
2026-04-22 16:20 53.73927 10.00436 6021 ft 220 kts 73°
2026-04-22 16:20 53.74063 10.03029 6743 ft 226 kts 95°
2026-04-22 16:20 53.73573 10.05669 7133 ft 251 kts 116°
2026-04-22 16:20 53.72664 10.08347 7452 ft 272 kts 117°
2026-04-22 16:21 53.71708 10.11163 8096 ft 279 kts 117°
2026-04-22 16:21 53.70737 10.14028 8872 ft 283 kts 116°
2026-04-22 16:21 53.69746 10.16920 9653 ft 286 kts 120°
2026-04-22 16:21 53.68423 10.19479 10351 ft 294 kts 138°
2026-04-22 16:22 53.64627 10.22360 11446 ft 318 kts 162°
2026-04-22 16:22 53.62418 10.23381 11586 ft 340 kts 162°
2026-04-22 16:22 53.60062 10.24454 11774 ft 359 kts 163°
2026-04-22 16:23 53.55149 10.26674 12951 ft 370 kts 162°
2026-04-22 16:23 53.52687 10.27794 13619 ft 373 kts 162°
2026-04-22 16:23 53.50175 10.28945 14259 ft 376 kts 162°
2026-04-22 16:24 53.47639 10.30105 14830 ft 379 kts 162°
2026-04-22 16:24 53.42522 10.32430 15986 ft 383 kts 162°
2026-04-22 16:24 53.39937 10.33593 16544 ft 386 kts 162°
2026-04-22 16:25 53.37337 10.34757 17106 ft 388 kts 162°
2026-04-22 16:25 53.32084 10.37118 18176 ft 393 kts 162°
2026-04-22 16:25 53.29435 10.38312 18670 ft 395 kts 162°
2026-04-22 16:26 53.26769 10.39510 19099 ft 398 kts 162°
2026-04-22 16:26 53.24091 10.40704 19535 ft 399 kts 162°
2026-04-22 16:26 53.21398 10.41901 19978 ft 401 kts 162°
2026-04-22 16:26 53.18697 10.43104 20422 ft 403 kts 162°
2026-04-22 16:27 53.15986 10.44313 20846 ft 405 kts 162°
2026-04-22 16:27 53.13201 10.45230 21274 ft 410 kts 171°
2026-04-22 16:27 53.10331 10.45363 21712 ft 416 kts 180°
2026-04-22 16:27 53.07434 10.44962 22151 ft 419 kts 181°
2026-04-22 16:28 53.04516 10.44548 22600 ft 421 kts 181°
2026-04-22 16:28 53.01591 10.44140 23035 ft 424 kts 181°
2026-04-22 16:28 52.98637 10.43734 23471 ft 426 kts 181°
2026-04-22 16:28 52.95680 10.43335 23906 ft 428 kts 181°
2026-04-22 16:29 52.92701 10.42934 24258 ft 430 kts 181°
2026-04-22 16:29 52.89712 10.42527 24618 ft 433 kts 181°
2026-04-22 16:29 52.86701 10.42113 24974 ft 435 kts 181°
2026-04-22 16:29 52.83684 10.41698 25318 ft 437 kts 181°
2026-04-22 16:30 52.81666 10.41422 25546 ft 438 kts 181°
2026-04-22 16:30 52.77588 10.40867 26009 ft 441 kts 180°
2026-04-22 16:30 52.74524 10.40455 26339 ft 443 kts 180°
2026-04-22 16:30 52.71435 10.40040 26677 ft 445 kts 180°
2026-04-22 16:31 52.68336 10.39627 27016 ft 447 kts 180°
2026-04-22 16:31 52.65225 10.39210 27353 ft 450 kts 180°
2026-04-22 16:31 52.62105 10.38788 27673 ft 452 kts 180°
2026-04-22 16:31 52.58962 10.38362 27996 ft 454 kts 180°
2026-04-22 16:32 52.55805 10.37938 28302 ft 456 kts 180°
2026-04-22 16:32 52.52637 10.37512 28595 ft 458 kts 180°
2026-04-22 16:32 52.49451 10.37085 28872 ft 460 kts 180°
2026-04-22 16:32 52.46256 10.36653 29131 ft 462 kts 180°
2026-04-22 16:33 52.43041 10.36222 29384 ft 463 kts 180°
2026-04-22 16:33 52.39873 10.35802 29625 ft 465 kts 180°
2026-04-22 16:33 52.36598 10.35366 29941 ft 464 kts 180°
2026-04-22 16:33 52.33422 10.34940 30255 ft 464 kts 180°
2026-04-22 16:34 52.27095 10.34086 30340 ft 449 kts 180°
2026-04-22 16:34 52.20915 10.33269 30330 ft 446 kts 179°
2026-04-22 16:35 52.14703 10.32459 30338 ft 446 kts 179°
2026-04-22 16:35 52.08522 10.31656 30336 ft 446 kts 179°
2026-04-22 16:36 52.02328 10.30844 30349 ft 446 kts 179°
2026-04-22 16:36 51.96144 10.30027 30341 ft 446 kts 179°
2026-04-22 16:37 51.89960 10.29218 30353 ft 446 kts 179°
2026-04-22 16:37 51.83774 10.28414 30335 ft 446 kts 179°
2026-04-22 16:38 51.77602 10.27611 30099 ft 443 kts 179°
2026-04-22 16:38 51.74518 10.27209 29131 ft 445 kts 179°
2026-04-22 16:38 51.71425 10.26812 28169 ft 448 kts 180°
2026-04-22 16:39 51.68306 10.26414 27268 ft 449 kts 180°
2026-04-22 16:39 51.65205 10.26018 26630 ft 445 kts 180°
2026-04-22 16:39 51.62135 10.25621 25995 ft 440 kts 180°
2026-04-22 16:39 51.59092 10.25224 25348 ft 436 kts 180°
2026-04-22 16:40 51.56083 10.24830 24725 ft 432 kts 180°
2026-04-22 16:40 51.53097 10.24446 24113 ft 428 kts 180°
2026-04-22 16:40 51.47205 10.23705 22695 ft 421 kts 181°
2026-04-22 16:41 51.44296 10.23333 21986 ft 417 kts 181°
2026-04-22 16:41 51.41417 10.22964 21294 ft 413 kts 181°
2026-04-22 16:41 51.38563 10.22597 20583 ft 410 kts 181°
2026-04-22 16:41 51.35736 10.22234 19895 ft 406 kts 181°
2026-04-22 16:42 51.32931 10.21887 19218 ft 402 kts 180°
2026-04-22 16:42 51.30160 10.21687 18567 ft 398 kts 179°
2026-04-22 16:42 51.27392 10.21622 17847 ft 394 kts 177°
2026-04-22 16:42 51.24662 10.21623 17184 ft 391 kts 177°
2026-04-22 16:43 51.21917 10.21636 16544 ft 387 kts 177°
2026-04-22 16:43 51.19287 10.21634 15964 ft 383 kts 178°
2026-04-22 16:43 51.16622 10.21611 15359 ft 380 kts 178°
2026-04-22 16:43 51.13985 10.21566 14779 ft 377 kts 178°
2026-04-22 16:44 51.11366 10.21508 14222 ft 374 kts 178°
2026-04-22 16:44 51.08771 10.21451 13618 ft 371 kts 178°
2026-04-22 16:44 51.06202 10.21398 13030 ft 368 kts 178°
2026-04-22 16:44 51.03657 10.21352 12479 ft 365 kts 178°
2026-04-22 16:45 51.01119 10.21308 12300 ft 365 kts 178°
2026-04-22 16:45 50.98583 10.21265 12327 ft 365 kts 178°
2026-04-22 16:45 50.96041 10.21221 12326 ft 365 kts 178°
2026-04-22 16:45 50.93498 10.21177 12326 ft 365 kts 178°
2026-04-22 16:46 50.90957 10.21136 12328 ft 365 kts 178°
2026-04-22 16:46 50.88416 10.21094 12328 ft 366 kts 178°
2026-04-22 16:46 50.85878 10.20719 12323 ft 368 kts 191°
2026-04-22 16:46 50.83442 10.19440 12327 ft 370 kts 203°
2026-04-22 16:47 50.81180 10.17482 12327 ft 371 kts 212°
2026-04-22 16:47 50.79120 10.14996 12326 ft 372 kts 221°
2026-04-22 16:47 50.77901 10.13102 12326 ft 372 kts 227°
2026-04-22 16:47 50.75861 10.08697 12325 ft 372 kts 241°
2026-04-22 16:48 50.74681 10.05066 12326 ft 372 kts 244°
2026-04-22 16:48 50.73521 10.01422 12325 ft 372 kts 244°
2026-04-22 16:48 50.72353 9.97780 12320 ft 372 kts 243°
2026-04-22 16:48 50.71183 9.94146 12320 ft 372 kts 243°
2026-04-22 16:49 50.70013 9.90512 12322 ft 372 kts 243°
2026-04-22 16:49 50.68840 9.86872 12325 ft 372 kts 243°
2026-04-22 16:49 50.67667 9.83235 12321 ft 372 kts 243°
2026-04-22 16:49 50.66495 9.79597 12322 ft 372 kts 243°
2026-04-22 16:50 50.65310 9.75963 12324 ft 372 kts 240°
2026-04-22 16:50 50.63890 9.72570 12325 ft 372 kts 232°
2026-04-22 16:50 50.62165 9.69539 12318 ft 371 kts 223°
2026-04-22 16:50 50.60183 9.66939 12318 ft 371 kts 214°
2026-04-22 16:51 50.57997 9.64808 12320 ft 370 kts 206°
2026-04-22 16:51 50.55748 9.62860 12316 ft 371 kts 215°
2026-04-22 16:51 50.53939 9.59976 12321 ft 371 kts 230°
2026-04-22 16:51 50.52286 9.56850 12316 ft 372 kts 230°
2026-04-22 16:52 50.50621 9.53736 12314 ft 371 kts 229°
2026-04-22 16:52 50.48949 9.50648 12317 ft 371 kts 229°
2026-04-22 16:52 50.47836 9.48612 12317 ft 371 kts 229°
2026-04-22 16:52 50.45578 9.44512 12311 ft 371 kts 228°
2026-04-22 16:53 50.44456 9.42485 12306 ft 371 kts 229°
2026-04-22 16:53 50.42760 9.39426 12312 ft 371 kts 229°
2026-04-22 16:53 50.41065 9.36368 12314 ft 371 kts 229°
2026-04-22 16:53 50.39654 9.32999 12313 ft 371 kts 245°
2026-04-22 16:54 50.38573 9.29325 12309 ft 372 kts 246°
2026-04-22 16:54 50.37501 9.25640 12313 ft 372 kts 246°
2026-04-22 16:54 50.36431 9.21960 12305 ft 372 kts 245°
2026-04-22 16:54 50.35369 9.18270 12255 ft 369 kts 246°
2026-04-22 16:55 50.34336 9.14615 11692 ft 366 kts 246°
2026-04-22 16:55 50.33323 9.10981 11113 ft 363 kts 246°
2026-04-22 16:55 50.32321 9.07384 10552 ft 360 kts 246°
2026-04-22 16:55 50.31326 9.03824 10154 ft 352 kts 246°
2026-04-22 16:56 50.30364 9.00398 10014 ft 336 kts 246°
2026-04-22 16:56 50.29442 8.97132 9825 ft 323 kts 246°
2026-04-22 16:56 50.28540 8.93942 9406 ft 319 kts 246°
2026-04-22 16:56 50.27681 8.90918 8964 ft 316 kts 246°